• In Hungary
  • List of Countries
  • For 7 days
  • Water Temperature
  • Satellite Maps
  • Weather Map
  • News
  • Weather Widgets
  • user-avatar
    Login

    Hourly Weather Marsa Alam

    Today, 22 November, Wednesday

    Time Temperature Precipitation Wind Pressure Humidity
    00:00 +18°C° 0 mm 3 mps 715 mmHg 42%
    01:00 +17°C° 0 mm 3 mps 715 mmHg 44%
    02:00 +16°C° 0 mm 3 mps 715 mmHg 46%
    03:00 +16°C° 0 mm 3 mps 715 mmHg 47%
    04:00 +16°C° 0 mm 3 mps 715 mmHg 49%
    05:00 +14°C° 0 mm 3 mps 715 mmHg 51%
    06:00 +15°C° 0 mm 4 mps 716 mmHg 52%
    07:00 +17°C° 0 mm 4 mps 716 mmHg 52%
    08:00 +17°C° 0 mm 5 mps 716 mmHg 53%
    09:00 +19°C° 0 mm 5 mps 716 mmHg 49%
    10:00 +20°C° 0 mm 5 mps 716 mmHg 45%
    11:00 +21°C° 0 mm 5 mps 717 mmHg 41%
    12:00 +22°C° 0 mm 5 mps 716 mmHg 37%
    13:00 +22°C° 0 mm 5 mps 716 mmHg 34%
    14:00 +23°C° 0 mm 5 mps 716 mmHg 30%
    15:00 +22°C° 0 mm 6 mps 716 mmHg 33%
    16:00 +21°C° 0 mm 6 mps 716 mmHg 35%
    17:00 +20°C° 0 mm 6 mps 716 mmHg 38%
    18:00 +20°C° 0 mm 6 mps 716 mmHg 42%
    19:00 +19°C° 0 mm 6 mps 716 mmHg 46%
    20:00 +17°C° 0 mm 5 mps 716 mmHg 51%
    21:00 +16°C° 0 mm 5 mps 716 mmHg 53%
    22:00 +16°C° 0 mm 5 mps 717 mmHg 56%
    23:00 +15°C° 0 mm 4 mps 717 mmHg 58%

    Tomorrow, 23 November, Thursday

    Time Temperature Precipitation Wind Pressure Humidity
    00:00 +15°C° 0 mm 4 mps 717 mmHg 59%
    01:00 +15°C° 0 mm 4 mps 716 mmHg 60%
    02:00 +14°C° 0 mm 4 mps 716 mmHg 61%
    03:00 +14°C° 0 mm 4 mps 716 mmHg 62%
    04:00 +13°C° 0 mm 4 mps 716 mmHg 62%
    05:00 +13°C° 0 mm 4 mps 716 mmHg 63%
    06:00 +14°C° 0 mm 5 mps 717 mmHg 60%
    07:00 +15°C° 0 mm 5 mps 717 mmHg 58%
    08:00 +15°C° 0 mm 6 mps 718 mmHg 55%
    09:00 +17°C° 0 mm 6 mps 718 mmHg 51%
    10:00 +19°C° 0 mm 6 mps 718 mmHg 46%
    11:00 +20°C° 0 mm 6 mps 718 mmHg 42%
    12:00 +21°C° 0 mm 6 mps 717 mmHg 41%
    13:00 +21°C° 0 mm 6 mps 717 mmHg 40%
    14:00 +21°C° 0 mm 6 mps 717 mmHg 39%
    15:00 +20°C° 0 mm 6 mps 716 mmHg 43%
    16:00 +20°C° 0 mm 6 mps 716 mmHg 47%
    17:00 +19°C° 0 mm 6 mps 716 mmHg 51%
    18:00 +17°C° 0 mm 5 mps 716 mmHg 54%
    19:00 +17°C° 0 mm 4 mps 717 mmHg 58%
    20:00 +17°C° 0 mm 4 mps 717 mmHg 61%
    21:00 +15°C° 0 mm 4 mps 717 mmHg 62%
    22:00 +15°C° 0 mm 4 mps 717 mmHg 63%
    23:00 +14°C° 0 mm 4 mps 717 mmHg 64%

    Day after tomorrow, 24 November, Friday

    Time Temperature Precipitation Wind Pressure Humidity
    00:00 +14°C° 0 mm 4 mps 717 mmHg 64%
    01:00 +14°C° 0 mm 4 mps 717 mmHg 65%
    02:00 +13°C° 0 mm 4 mps 716 mmHg 66%
    03:00 +13°C° 0 mm 4 mps 716 mmHg 67%
    04:00 +13°C° 0 mm 4 mps 716 mmHg 69%
    05:00 +13°C° 0 mm 4 mps 716 mmHg 71%
    06:00 +14°C° 0 mm 4 mps 716 mmHg 68%
    07:00 +15°C° 0 mm 5 mps 717 mmHg 65%
    08:00 +16°C° 0 mm 6 mps 717 mmHg 63%
    09:00 +17°C° 0 mm 6 mps 718 mmHg 58%
    10:00 +20°C° 0 mm 7 mps 718 mmHg 53%
    11:00 +21°C° 0 mm 7 mps 718 mmHg 48%
    12:00 +21°C° 0 mm 7 mps 717 mmHg 47%
    13:00 +22°C° 0 mm 7 mps 717 mmHg 47%
    14:00 +22°C° 0 mm 7 mps 716 mmHg 47%
    15:00 +21°C° 0 mm 7 mps 716 mmHg 51%
    16:00 +20°C° 0 mm 6 mps 716 mmHg 55%
    17:00 +19°C° 0 mm 6 mps 716 mmHg 60%
    18:00 +17°C° 0 mm 5 mps 716 mmHg 62%
    19:00 +18°C° 0 mm 4 mps 717 mmHg 65%
    20:00 +17°C° 0 mm 4 mps 717 mmHg 67%
    21:00 +17°C° 0 mm 3 mps 717 mmHg 68%
    22:00 +16°C° 0 mm 3 mps 717 mmHg 69%
    23:00 +16°C° 0 mm 3 mps 717 mmHg 71%

    25 November, Saturday

    Time Temperature Precipitation Wind Pressure Humidity
    00:00 +16°C° 0 mm 3 mps 716 mmHg 70%
    01:00 +14°C° 0 mm 3 mps 716 mmHg 69%
    02:00 +14°C° 0 mm 3 mps 716 mmHg 68%
    03:00 +14°C° 0 mm 3 mps 716 mmHg 68%
    04:00 +14°C° 0 mm 3 mps 716 mmHg 69%
    05:00 +14°C° 0 mm 3 mps 715 mmHg 70%
    06:00 +16°C° 0 mm 3 mps 716 mmHg 65%
    07:00 +17°C° 0 mm 3 mps 716 mmHg 60%
    08:00 +18°C° 0 mm 3 mps 717 mmHg 55%
    09:00 +20°C° 0 mm 3 mps 717 mmHg 49%
    10:00 +21°C° 0 mm 3 mps 717 mmHg 43%
    11:00 +24°C° 0 mm 3 mps 717 mmHg 37%
    12:00 +24°C° 0 mm 3 mps 717 mmHg 35%
    13:00 +25°C° 0 mm 3 mps 716 mmHg 33%
    14:00 +25°C° 0 mm 3 mps 716 mmHg 30%
    15:00 +24°C° 0 mm 3 mps 716 mmHg 33%
    16:00 +24°C° 0 mm 3 mps 716 mmHg 36%
    17:00 +22°C° 0 mm 3 mps 715 mmHg 39%
    18:00 +21°C° 0 mm 2 mps 716 mmHg 43%
    19:00 +20°C° 0 mm 2 mps 716 mmHg 46%
    20:00 +19°C° 0 mm 2 mps 717 mmHg 50%
    21:00 +20°C° 0 mm 1 mps 717 mmHg 50%
    22:00 +19°C° 0 mm 1 mps 717 mmHg 49%
    23:00 +19°C° 0 mm 1 mps 717 mmHg 49%

    26 November, Sunday

    Time Temperature Precipitation Wind Pressure Humidity
    00:00 +18°C° 0 mm 1 mps 716 mmHg 46%
    01:00 +18°C° 0 mm 1 mps 716 mmHg 43%
    02:00 +16°C° 0 mm 1 mps 716 mmHg 40%
    03:00 +16°C° 0 mm 1 mps 716 mmHg 38%
    04:00 +16°C° 0 mm 1 mps 716 mmHg 36%
    05:00 +15°C° 0 mm 1 mps 716 mmHg 35%
    06:00 +18°C° 0 mm 1 mps 717 mmHg 32%
    07:00 +19°C° 0 mm 1 mps 717 mmHg 28%
    08:00 +20°C° 0 mm 1 mps 718 mmHg 25%
    09:00 +21°C° 0 mm 2 mps 718 mmHg 23%
    10:00 +23°C° 0 mm 2 mps 718 mmHg 21%
    11:00 +24°C° 0 mm 2 mps 718 mmHg 19%
    12:00 +25°C° 0 mm 3 mps 718 mmHg 18%
    13:00 +25°C° 0 mm 3 mps 717 mmHg 18%
    14:00 +26°C° 0 mm 4 mps 717 mmHg 18%
    15:00 +25°C° 0 mm 3 mps 717 mmHg 22%
    16:00 +24°C° 0 mm 3 mps 717 mmHg 27%
    17:00 +22°C° 0 mm 3 mps 717 mmHg 31%
    18:00 +21°C° 0 mm 3 mps 717 mmHg 36%
    19:00 +20°C° 0 mm 3 mps 717 mmHg 41%
    20:00 +19°C° 0 mm 2 mps 718 mmHg 46%
    21:00 +18°C° 0 mm 2 mps 718 mmHg 50%
    22:00 +18°C° 0 mm 2 mps 718 mmHg 54%
    23:00 +17°C° 0 mm 2 mps 718 mmHg 57%

    27 November, Monday

    Time Temperature Precipitation Wind Pressure Humidity
    00:00 +17°C° 0 mm 2 mps 717 mmHg 60%
    01:00 +16°C° 0 mm 3 mps 717 mmHg 63%
    02:00 +16°C° 0 mm 3 mps 717 mmHg 66%
    03:00 +16°C° 0 mm 3 mps 717 mmHg 69%
    04:00 +15°C° 0 mm 2 mps 717 mmHg 72%
    05:00 +15°C° 0 mm 2 mps 717 mmHg 74%
    06:00 +16°C° 0 mm 2 mps 718 mmHg 69%
    07:00 +17°C° 0 mm 2 mps 718 mmHg 64%
    08:00 +18°C° 0 mm 2 mps 719 mmHg 58%
    09:00 +19°C° 0 mm 3 mps 719 mmHg 51%
    10:00 +20°C° 0 mm 3 mps 719 mmHg 44%
    11:00 +22°C° 0 mm 3 mps 719 mmHg 36%
    12:00 +22°C° 0 mm 3 mps 718 mmHg 34%
    13:00 +23°C° 0 mm 4 mps 718 mmHg 31%
    14:00 +23°C° 0 mm 4 mps 717 mmHg 28%
    15:00 +22°C° 0 mm 4 mps 717 mmHg 32%
    16:00 +22°C° 0 mm 4 mps 717 mmHg 36%
    17:00 +21°C° 0 mm 4 mps 717 mmHg 40%
    18:00 +20°C° 0 mm 4 mps 718 mmHg 46%
    19:00 +19°C° 0 mm 3 mps 718 mmHg 52%
    20:00 +18°C° 0 mm 3 mps 718 mmHg 58%
    21:00 +18°C° 0 mm 3 mps 718 mmHg 62%
    22:00 +17°C° 0 mm 2 mps 717 mmHg 66%
    23:00 +17°C° 0 mm 2 mps 717 mmHg 71%
    Show more